Location: Tucson
(32.2217°N, 110.9265°W)
Time: 10:33:44
(UTC-07:00)

Envisat - Pass Details

Date: 14 October 2022
Orbit: 763 x 765 km, 98.2° (Epoch: 29 November)

Event Time Altitude Azimuth Distance (km) Brightness Sun altitude
Rises 03:32:59 0° 32° (NNE) 3,231 6.8 -37.3°
Reaches altitude 10° 03:36:01 10° 51° (NE) 2,300 6.1 -36.6°
Maximum altitude 03:39:28 18° 94° (E) 1,791 5.5 -35.9°
Drops below altitude 10° 03:42:53 10° 138° (SE) 2,290 5.7 -35.2°
Sets 03:45:52 0° 156° (SSE) 3,211 6.3 -34.6°
